This demonstration page uses our WeatherBlox Daily Observations layout. Learn more.

Hourly Observations for August 8, 2016

Temp ( °F °C ) Dew Point ( °F °C ) Humidity (%) Winds ( mph kmh ) Pressure ( in mb ) Visibility ( mi km ) Precip ( " mm )
12:54 am 00:54 Clear 69 20.6 64 17.8 84 84 E 3 6 29.98 1015 10 16.0934 0 0
1:54 am 01:54 Clear 66 18.9 63 17.2 90 90 Calm 29.98 1015 10 16.0934 0 0
2:54 am 02:54 Clear 64 17.8 62 16.7 93 93 Calm 30.01 1016 10 16.0934 0 0
3:54 am 03:54 Clear 63 17.2 61 16.1 93 93 N 6 9 30.01 1016 10 16.0934 0 0
4:54 am 04:54 Clear 61 16.1 60 15.6 97 97 N 7 11 29.99 1016 10 16.0934 0 0
5:54 am 05:54 Cloudy 64 17.8 61 16.1 90 90 Calm 29.98 1015 10 16.0934 0 0
6:54 am 06:54 Cloudy 64 17.8 62 16.7 93 93 N 7 11 30.01 1016 10 16.0934 0 0
7:54 am 07:54 Cloudy 66 18.9 63 17.2 90 90 ENE 5 7 29.99 1016 10 16.0934 0 0
8:54 am 08:54 Cloudy 67 19.4 64 17.8 91 91 ENE 7 11 30 1016 10 16.0934 0 0
9:54 am 09:54 Cloudy 69 20.6 65 18.3 87 87 ENE 8 13 29.98 1015 10 16.0934 0 0
10:54 am 10:54 Cloudy 72 22.2 66 18.9 82 82 E 6 9 29.97 1015 10 16.0934 0 0
11:54 am 11:54 Cloudy 76 24.4 66 18.9 72 72 ESE 9 15 29.96 1015 10 16.0934 0 0
12:35 pm 12:35 Cloudy 76 24.4 66 18.9 72 72 ESE 13 20 29.94 1014 10 16.0934 0 0
12:54 pm 12:54 Cloudy 77 25 66 18.9 69 69 SE 13 20 29.96 1015 10 16.0934 0 0
1:04 pm 13:04 Cloudy 77 25 66 18.9 69 69 ESE 14 22 29.94 1014 10 16.0934 0 0
1:25 pm 13:25 Cloudy 79 26.1 67 19.4 67 67 ESE 8 13 29.94 1014 10 16.0934 0 0
1:54 pm 13:54 Mostly Cloudy 79 26.1 67 19.4 67 67 SE 12 19 29.95 1014 10 16.0934 0 0
2:54 pm 14:54 Mostly Cloudy 80 26.7 67 19.4 64 64 SE 9 15 29.94 1014 10 16.0934 0 0
3:01 pm 15:01 Cloudy 80 26.7 67 19.4 64 64 S 9 15 29.91 1013 10 16.0934 0 0
3:54 pm 15:54 Cloudy 79 26.1 67 19.4 67 67 S 8 13 29.92 1013 10 16.0934 0 0
4:54 pm 16:54 Cloudy 80 26.7 68 20 67 67 SE 9 15 29.9 1013 10 16.0934 0 0
5:54 pm 17:54 Cloudy 81 27.2 69 20.6 67 67 SE 7 11 29.89 1012 10 16.0934 0 0
6:54 pm 18:54 Cloudy 79 26.1 69 20.6 72 72 E 8 13 29.88 1012 10 16.0934 0 0
7:54 pm 19:54 Mostly Cloudy 79 26.1 69 20.6 72 72 E 9 15 29.87 1012 10 16.0934 0 0
8:54 pm 20:54 Cloudy 78 25.6 69 20.6 74 74 ESE 8 13 29.88 1012 10 16.0934 0 0
9:42 pm 21:42 Cloudy 77 25 70 21 79 79 ESE 8 13 29.88 1012 10 16.0934 0 0
9:54 pm 21:54 Cloudy 77 25 69 20.6 77 77 ESE 7 11 29.91 1013 10 16.0934 0 0
10:54 pm 22:54 Cloudy 77 25 70 21.1 79 79 SE 7 11 29.91 1013 10 16.0934 0 0
11:54 pm 23:54 Cloudy 76 24.4 70 21.1 82 82 SSE 9 15 29.9 1012 10 16.0934 0 0

Powered by AerisWeather